Weather in Nelkan

Russia / Sakha (Yakutia) Republic     64°10′54″N   143°01′40″E
temp.,
°C
wind,
m/s
gust,
m/s
humid.,
%
clouds,
%
prec.,
mm/h
press.,
hPa
HPBL,
m
21 april, wed
wed2123:00−4e2291100 0.2 101111
02:00−4ne2289100 0.1 101015
05:00−4e2287100 0.1 101014
08:00−2se2283100 0.0 101023
11:00+1sse1396100 0.1 1010119
14:00+1n1197100 0.3 100959
17:000sse3780100 1.1 1009562
20:00−1se2277100 0.0 101023
22 april, thu
thu2223:00−5w2297100 1.3 101442
02:00−8ene2294100 0.9 101724
05:00−8e2288100 1.0 101817
08:00−8sse227699 0.0 101929
11:00−6wsw22472 0.0 1019668
14:00−5wnw11434 0.0 1019807
17:00−5nw215475 0.0 1019766
20:00−8nne2272100 0.0 102010
23 april, fri
fri2323:00−12ne2277100 0.0 102110
02:00−14ene1180100 0.0 10219
05:00−14n1183100 0.0 102110
08:00−13wnw2282100 0.0 1020109
11:00−10wnw2277100 0.0 1018312
14:00−8wnw2372100 0.0 1016639
17:00−7w3469100 0.0 1015792
20:00−9wnw2288100 0.1 1015124
24 april, sat
sat2423:00−12nw1194100 0.3 101510
02:00−12nnw2296100 0.4 101532
05:00−14n229398 0.6 101520
08:00−12nnw2386100 0.2 1015205
11:00−9n3471100 0.2 1015780
14:00−8nne4461100 0.1 10141117
17:00−8nne4459100 0.1 10141099
20:00−10ne3378100 0.0 101644
25 april, sun
sun2523:00−15ne3282100 0.0 101915
02:00−17ne2283100 0.0 102012
05:00−19ne1185100 0.0 10219
08:00−17nw118187 0.0 102084
11:00−14w227678 0.0 1018405
14:00−12w226481 0.0 1016667
17:00−9wsw216766 0.1 1014559
20:00−11wsw00805 0.0 101410